Date,TemperatureHighF,TemperatureAvgF,TemperatureLowF,DewpointHighF,DewpointAvgF,DewpointLowF,HumidityHigh,HumidityAvg,HumidityLow,PressureMaxIn,PressureMinIn,WindSpeedMaxMPH,WindSpeedAvgMPH,GustSpeedMaxMPH,PrecipitationSumIn
2013-2-1,61.9,47.0,41.0,0.0,0.0,0.0,0,0,100,0.00,0.00,8,2,10,0.00
2013-2-2,45.8,41.4,38.0,0.0,0.0,0.0,0,0,100,0.00,0.00,8,2,8,0.00
2013-2-3,52.1,43.4,37.5,0.0,0.0,0.0,0,0,100,0.00,0.00,7,2,8,0.00
2013-2-4,60.0,47.3,42.7,0.0,0.0,0.0,0,0,100,0.00,0.00,8,2,8,0.00
2013-2-5,58.0,46.2,42.1,0.0,0.0,0.0,0,0,100,0.00,0.00,13,3,16,0.00
2013-2-6,57.3,45.6,42.1,0.0,0.0,0.0,0,0,100,0.00,0.00,12,3,13,0.00
2013-2-7,62.9,46.1,35.9,0.0,0.0,0.0,0,0,100,0.00,0.00,14,3,19,0.00
2013-2-8,53.6,42.1,34.1,0.0,0.0,0.0,0,0,100,0.00,0.00,6,1,7,0.00
2013-2-9,50.7,43.0,39.7,0.0,0.0,0.0,0,0,100,0.00,0.00,5,1,5,0.00
2013-2-10,60.5,43.2,33.8,0.0,0.0,0.0,0,0,100,0.00,0.00,6,2,8,0.00
2013-2-11,51.1,44.2,38.6,0.0,0.0,0.0,0,0,100,0.00,0.00,6,1,8,0.00
2013-2-12,51.8,47.0,44.0,0.0,0.0,0.0,0,0,100,0.00,0.00,15,3,18,0.00
2013-2-13,51.1,46.8,43.7,0.0,0.0,0.0,0,0,100,0.00,0.00,11,2,13,0.00
2013-2-14,56.9,46.4,41.9,0.0,0.0,0.0,0,0,100,0.00,0.00,6,2,8,0.00
2013-2-15,66.3,47.9,37.8,0.0,0.0,0.0,0,0,100,0.00,0.00,8,2,10,0.00
2013-2-16,64.2,46.7,37.2,0.0,0.0,0.0,0,0,100,0.00,0.00,14,3,18,0.00
2013-2-17,60.7,43.1,39.3,0.0,0.0,0.0,0,0,100,0.00,0.00,7,2,8,0.00
2013-2-18,57.9,43.2,38.4,0.0,0.0,0.0,0,0,100,0.00,0.00,7,2,8,0.00
2013-2-19,62.7,44.6,32.8,0.0,0.0,0.0,0,0,100,0.00,0.00,11,2,13,0.00
2013-2-20,49.3,39.8,32.3,0.0,0.0,0.0,0,0,100,0.00,0.00,9,2,11,0.00
2013-2-21,47.0,42.5,38.8,0.0,0.0,0.0,0,0,100,0.00,0.00,14,4,18,0.00
2013-2-22,50.6,42.0,37.1,0.0,0.0,0.0,0,0,100,0.00,0.00,17,5,24,0.00
2013-2-23,63.6,44.5,37.7,0.0,0.0,0.0,0,0,100,0.00,0.00,9,3,12,0.00
2013-2-24,52.7,45.3,40.4,0.0,0.0,0.0,0,0,100,0.00,0.00,13,4,14,0.00
2013-2-25,61.7,44.7,36.5,0.0,0.0,0.0,0,0,100,0.00,0.00,16,5,21,0.00
2013-2-26,55.1,44.4,36.8,0.0,0.0,0.0,0,0,100,0.00,0.00,10,3,13,0.00
2013-2-27,59.5,44.8,37.4,0.0,0.0,0.0,0,0,100,0.00,0.00,9,2,10,0.00
2013-2-28,53.2,47.2,42.0,0.0,0.0,0.0,0,0,100,0.00,0.00,11,2,16,0.00